This demonstration page uses our WeatherBlox Daily Observations layout. Learn more.

Left ArrowRight Arrow

Hourly Observations for March 24, 2015

Temp ( °F °C ) Dew Point ( °F °C ) Humidity (%) Winds ( mph kmh ) Pressure ( in mb ) Visibility ( mi km ) Precip ( " mm )
12:15 am 00:15 Cloudy 41 5 25 -4 53 53 N N/A 30.27 1025 10 16 N/A
12:35 am 00:35 Cloudy 39 4 25 -4 56 56 N N/A 30.30 1026 10 16 N/A
12:55 am 00:55 Cloudy 39 4 23 -5 52 52 N N/A 30.27 1025 10 16 N/A
1:15 am 01:15 Cloudy 37 3 25 -4 60 60 N N/A 30.27 1025 10 16 N/A
1:35 am 01:35 Cloudy 37 3 27 -3 65 65 SSW 3 6 30.27 1025 10 16 N/A
1:55 am 01:55 Cloudy 37 3 25 -4 60 60 S 3 6 30.27 1025 10 16 N/A
2:15 am 02:15 Cloudy 37 3 23 -5 56 56 N N/A 30.30 1026 10 16 N/A
2:35 am 02:35 Cloudy 39 4 23 -5 52 52 N N/A 30.27 1025 10 16 N/A
2:55 am 02:55 Cloudy 37 3 25 -4 60 60 N N/A 30.30 1026 10 16 N/A
3:15 am 03:15 Cloudy 37 3 25 -4 60 60 N N/A 30.30 1026 10 16 N/A
3:35 am 03:35 Cloudy 37 3 25 -4 60 60 N N/A 30.30 1026 10 16 N/A
3:55 am 03:55 Cloudy 37 3 25 -4 60 60 N N/A 30.27 1025 10 16 N/A
4:15 am 04:15 Cloudy 39 4 23 -5 52 52 N N/A 30.30 1026 10 16 N/A
4:35 am 04:35 Cloudy 37 3 23 -5 56 56 N N/A 30.30 1026 10 16 N/A
4:55 am 04:55 Cloudy 37 3 25 -4 60 60 N N/A 30.27 1025 10 16 N/A
5:15 am 05:15 Cloudy 37 3 25 -4 60 60 E 3 6 30.27 1025 10 16 N/A
5:35 am 05:35 Cloudy 37 3 23 -5 56 56 E 3 6 30.30 1026 10 16 N/A
5:55 am 05:55 Cloudy 37 3 23 -5 56 56 NE 3 6 30.30 1026 10 16 N/A
6:15 am 06:15 Cloudy 37 3 23 -5 56 56 ENE 5 7 30.30 1026 10 16 N/A
6:35 am 06:35 Cloudy 37 3 21 -6 52 52 NE 6 9 30.30 1026 10 16 N/A
6:55 am 06:55 Cloudy 37 3 19 -7 48 48 ENE 5 7 30.30 1026 10 16 N/A
7:15 am 07:15 Cloudy 37 3 19 -7 48 48 ENE 5 7 30.30 1026 10 16 N/A
7:35 am 07:35 Cloudy 36 2 23 -5 60 60 NE 7 11 30.30 1026 10 16 N/A
7:55 am 07:55 Cloudy 36 2 23 -5 60 60 NE 6 9 30.33 1027 10 16 N/A
8:15 am 08:15 Cloudy 36 2 25 -4 65 65 ENE 8 13 30.33 1027 10 16 N/A
8:35 am 08:35 Cloudy 36 2 27 -3 70 70 ENE 6 9 30.33 1027 10 16 N/A
8:55 am 08:55 Cloudy 36 2 27 -3 70 70 NE 6 9 30.33 1027 10 16 N/A
9:15 am 09:15 Cloudy 37 3 27 -3 65 65 NE 5 7 30.36 1028 10 16 N/A
9:35 am 09:35 Cloudy 37 3 27 -3 65 65 NE 5 7 30.36 1028 10 16 N/A
9:55 am 09:55 Cloudy 37 3 27 -3 65 65 NE 6 9 30.36 1028 10 16 N/A
10:15 am 10:15 Cloudy 37 3 25 -4 60 60 E 5 7 30.36 1028 10 16 N/A
10:35 am 10:35 Cloudy 39 4 21 -6 48 48 ESE 3 6 30.36 1028 10 16 N/A
10:55 am 10:55 Cloudy 39 4 21 -6 48 48 ESE 7 11 30.36 1028 10 16 N/A
11:15 am 11:15 Cloudy 39 4 21 -6 48 48 ESE 7 11 30.36 1028 10 16 N/A
11:35 am 11:35 Cloudy 41 5 21 -6 45 45 ESE 7 11 30.36 1028 10 16 N/A
11:55 am 11:55 Cloudy 41 5 21 -6 45 45 E 7 11 30.36 1028 10 16 N/A
12:15 pm 12:15 Cloudy 43 6 21 -6 42 42 ESE 8 13 30.36 1028 10 16 N/A
12:35 pm 12:35 Cloudy 43 6 21 -6 42 42 N N/A 30.36 1028 10 16 N/A
12:55 pm 12:55 Cloudy 43 6 23 -5 46 46 ENE 6 9 30.33 1027 10 16 N/A
1:15 pm 13:15 Cloudy 43 6 21 -6 42 42 SE 5 7 30.33 1027 10 16 N/A
1:35 pm 13:35 Cloudy 43 6 21 -6 42 42 ENE 8 13 30.33 1027 10 16 N/A
1:55 pm 13:55 Cloudy 43 6 21 -6 42 42 E 8 13 30.33 1027 10 16 N/A
2:15 pm 14:15 Cloudy 43 6 21 -6 42 42 ENE 7 11 30.33 1027 10 16 N/A
2:35 pm 14:35 Cloudy 45 7 23 -5 42 42 E 8 13 30.33 1027 10 16 N/A
2:55 pm 14:55 Cloudy 45 7 23 -5 42 42 E 9 15 30.33 1027 10 16 N/A
3:15 pm 15:15 Mostly Cloudy 45 7 21 -6 39 39 ENE 6 9 30.33 1027 10 16 N/A
3:35 pm 15:35 Cloudy 45 7 23 -5 42 42 SE 8 13 30.33 1027 10 16 N/A
3:55 pm 15:55 Cloudy 45 7 23 -5 42 42 NE 6 9 30.33 1027 10 16 N/A
4:15 pm 16:15 Cloudy 46 8 23 -5 40 40 NNE 6 9 30.33 1027 10 16 N/A
4:35 pm 16:35 Cloudy 46 8 23 -5 40 40 NNE 10 17 30.33 1027 10 16 N/A
4:55 pm 16:55 Partly Cloudy 46 8 23 -5 40 40 NNE 5 7 30.33 1027 10 16 N/A
5:15 pm 17:15 Sunny 46 8 23 -5 40 40 E 5 7 30.33 1027 10 16 N/A
5:35 pm 17:35 Mostly Cloudy 46 8 23 -5 40 40 N N/A 30.36 1028 10 16 N/A
5:55 pm 17:55 Mostly Cloudy 45 7 25 -4 46 46 N 3 6 30.36 1028 10 16 N/A
6:15 pm 18:15 Partly Cloudy 45 7 23 -5 42 42 N 7 11 30.36 1028 10 16 N/A
6:35 pm 18:35 Sunny 45 7 23 -5 42 42 N 5 7 30.36 1028 10 16 N/A
6:55 pm 18:55 Sunny 43 6 23 -5 46 46 NNE 6 9 30.36 1028 10 16 N/A
7:15 pm 19:15 Sunny 43 6 23 -5 46 46 NNE 7 11 30.39 1029 10 16 N/A
7:35 pm 19:35 Clear 43 6 23 -5 46 46 NNE 5 7 30.39 1029 10 16 N/A
7:55 pm 19:55 Clear 41 5 23 -5 49 49 NNE 5 7 30.39 1029 10 16 N/A
8:15 pm 20:15 Clear 41 5 23 -5 49 49 NNE 5 7 30.39 1029 10 16 N/A
8:35 pm 20:35 Clear 41 5 23 -5 49 49 NE 3 6 30.39 1029 10 16 N/A
8:55 pm 20:55 Clear 39 4 23 -5 52 52 NE 3 6 30.39 1029 10 16 N/A
9:15 pm 21:15 Clear 37 3 23 -5 56 56 ENE 3 6 30.39 1029 10 16 N/A
9:35 pm 21:35 Clear 37 3 23 -5 56 56 N N/A 30.42 1030 10 16 N/A
9:55 pm 21:55 Clear 37 3 23 -5 56 56 N N/A 30.42 1030 10 16 N/A
10:15 pm 22:15 Clear 36 2 23 -5 60 60 N N/A 30.42 1030 10 16 N/A
10:35 pm 22:35 Clear 34 1 25 -4 70 70 N N/A 30.42 1030 10 16 N/A
10:55 pm 22:55 Clear 34 1 25 -4 70 70 N N/A 30.42 1030 10 16 N/A
11:15 pm 23:15 Clear 34 1 25 -4 70 70 N N/A 30.42 1030 10 16 N/A
11:35 pm 23:35 Clear 32 undefined 25 -4 75 75 N N/A 30.42 1030 10 16 N/A
11:55 pm 23:55 Clear 32 undefined 27 -3 80 80 N N/A 30.42 1030 10 16 N/A

Powered by AerisWeather